QPF
0.02 0.01 0.01 0.02 0.02 0.02 0.02 0.02 0.02 0.01 0.02 0.02 0.02 0.01 0.01 0.01 0.02 0.02 0.02 0.02 0.02 0.03 0.03 0.03 0.03 0.02 0.01 0.01 0.01 0.02 0.03 0.04 0.05 0.05 0.05 0.04 0.03 0.03 0.03 0.03 0.02 0.03 0.04
0.01 0.01 0.01 0.01 0.02 0.02 0.03 0.03 0.02 0.02 0.02 0.02 0.01 0.01 0.01 0.02 0.02 0.02 0.02 0.02 0.02 0.03 0.03 0.03 0.02 0.02 0.01 0.01 0.01 0.02 0.02 0.03 0.05 0.06 0.06 0.05 0.03 0.02 0.02 0.02 0.03 0.03 0.03
0.01 0.02 0.02 0.01 0.01 0.02 0.02 0.03 0.02 0.02 0.02 0.01 0.01 0.01 0.02 0.02 0.02 0.03 0.02 0.02 0.02 0.02 0.02 0.02 0.02 0.01 0.01 0.02 0.02 0.02 0.03 0.03 0.05 0.06 0.06 0.05 0.03 0.02 0.03 0.04 0.04 0.03 0.03
0.02 0.02 0.02 0.03 0.02 0.02 0.02 0.02 0.02 0.02 0.02 0.01 0.01 0.01 0.02 0.03 0.03 0.03 0.03 0.02 0.02 0.02 0.03 0.03 0.02 0.02 0.02 0.02 0.02 0.03 0.04 0.04 0.06 0.06 0.06 0.06 0.04 0.03 0.04 0.05 0.05 0.04 0.04
0.02 0.02 0.02 0.03 0.03 0.03 0.03 0.02 0.02 0.02 0.02 0.02 0.02 0.02 0.02 0.03 0.03 0.03 0.03 0.02 0.02 0.03 0.02 0.03 0.03 0.03 0.03 0.03 0.03 0.03 0.04 0.05 0.07 0.06 0.05 0.06 0.05 0.05 0.05 0.04 0.05 0.04 0.03
0.02 0.02 0.02 0.02 0.02 0.03 0.04 0.05 0.04 0.04 0.04 0.03 0.03 0.03 0.03 0.03 0.04 0.04 0.04 0.03 0.03 0.02 0.02 0.02 0.02 0.03 0.03 0.03 0.04 0.05 0.06 0.06 0.07 0.06 0.05 0.05 0.04 0.04 0.03 0.03 0.03 0.03 0.03
0.02 0.02 0.02 0.02 0.02 0.03 0.03 0.03 0.05 0.06 0.06 0.06 0.06 0.05 0.04 0.04 0.04 0.04 0.04 0.04 0.04 0.03 0.02 0.02 0.02 0.02 0.02 0.03 0.04 0.05 0.06 0.06 0.07 0.07 0.06 0.05 0.03 0.03 0.03 0.02 0.02 0.02 0.02
0.03 0.02 0.02 0.02 0.02 0.02 0.03 0.03 0.04 0.04 0.05 0.05 0.05 0.05 0.04 0.04 0.05 0.05 0.05 0.04 0.04 0.03 0.02 0.02 0.02 0.03 0.03 0.03 0.04 0.06 0.06 0.05 0.06 0.06 0.06 0.06 0.04 0.03 0.03 0.02 0.02 0.02 0.02
0.04 0.04 0.03 0.02 0.02 0.02 0.03 0.03 0.04 0.04 0.04 0.04 0.04 0.04 0.04 0.04 0.06 0.07 0.05 0.04 0.03 0.02 0.02 0.02 0.02 0.03 0.05 0.05 0.04 0.06 0.06 0.06 0.06 0.05 0.06 0.06 0.06 0.04 0.03 0.03 0.03 0.03 0.02
0.04 0.04 0.04 0.02 0.02 0.02 0.02 0.03 0.03 0.03 0.03 0.03 0.04 0.04 0.04 0.04 0.05 0.05 0.05 0.04 0.03 0.02 0.02 0.02 0.02 0.02 0.04 0.05 0.05 0.05 0.06 0.07 0.06 0.04 0.04 0.04 0.04 0.03 0.04 0.03 0.04 0.03 0.03
0.03 0.04 0.05 0.03 0.02 0.02 0.02 0.02 0.03 0.03 0.03 0.04 0.04 0.04 0.04 0.04 0.04 0.03 0.03 0.03 0.03 0.02 0.02 0.03 0.02 0.03 0.03 0.04 0.04 0.05 0.07 0.07 0.06 0.05 0.04 0.04 0.04 0.03 0.03 0.03 0.03 0.03 0.03
0.03 0.03 0.04 0.04 0.03 0.03 0.02 0.03 0.03 0.03 0.04 0.04 0.04 0.04 0.03 0.03 0.03 0.03 0.03 0.02 0.02 0.02 0.02 0.03 0.03 0.03 0.03 0.03 0.03 0.05 0.06 0.07 0.06 0.05 0.05 0.05 0.05 0.04 0.03 0.03 0.03 0.03 0.03
0.03 0.03 0.04 0.04 0.04 0.04 0.03 0.04 0.04 0.04 0.04 0.04 0.04 0.04 0.03 0.02 0.02 0.02 0.03 0.02 0.02 0.02 0.02 0.02 0.03 0.03 0.03 0.03 0.03 0.03 0.05 0.06 0.06 0.05 0.05 0.05 0.04 0.04 0.04 0.04 0.04 0.03 0.03
0.02 0.03 0.03 0.04 0.05 0.04 0.05 0.05 0.05 0.05 0.05 0.05 0.04 0.03 0.03 0.02 0.02 0.02 0.02 0.02 0.02 0.02 0.02 0.02 0.02 0.03 0.03 0.03 0.03 0.03 0.04 0.05 0.05 0.04 0.04 0.04 0.04 0.04 0.04 0.04 0.04 0.04 0.04
0.02 0.03 0.03 0.04 0.05 0.05 0.06 0.06 0.05 0.05 0.05 0.04 0.04 0.03 0.03 0.03 0.02 0.02 0.02 0.02 0.02 0.02 0.02 0.02 0.02 0.03 0.03 0.03 0.03 0.03 0.04 0.04 0.05 0.04 0.03 0.03 0.03 0.03 0.03 0.04 0.05 0.04 0.04
0.02 0.03 0.04 0.04 0.05 0.05 0.06 0.06 0.07 0.06 0.05 0.04 0.04 0.03 0.03 0.03 0.03 0.03 0.03 0.03 0.03 0.03 0.03 0.03 0.03 0.03 0.03 0.03 0.03 0.04 0.04 0.04 0.04 0.03 0.03 0.03 0.03 0.03 0.03 0.04 0.04 0.04 0.05
0.02 0.03 0.04 0.04 0.05 0.05 0.05 0.05 0.06 0.07 0.06 0.05 0.04 0.03 0.03 0.03 0.03 0.03 0.04 0.04 0.04 0.03 0.03 0.03 0.03 0.03 0.03 0.03 0.03 0.03 0.03 0.03 0.03 0.03 0.03 0.03 0.03 0.03 0.03 0.03 0.03 0.03 0.04
0.02 0.03 0.04 0.04 0.05 0.05 0.06 0.06 0.05 0.05 0.05 0.05 0.04 0.03 0.03 0.03 0.04 0.04 0.04 0.04 0.04 0.04 0.04 0.04 0.03 0.03 0.04 0.04 0.04 0.04 0.04 0.03 0.03 0.03 0.03 0.03 0.03 0.03 0.03 0.03 0.03 0.04 0.04
0.03 0.04 0.04 0.04 0.05 0.05 0.06 0.05 0.05 0.04 0.04 0.04 0.03 0.03 0.03 0.04 0.04 0.04 0.04 0.04 0.04 0.04 0.04 0.04 0.04 0.04 0.04 0.04 0.05 0.04 0.04 0.04 0.04 0.04 0.04 0.04 0.03 0.03 0.03 0.03 0.04 0.04 0.04
0.03 0.04 0.05 0.05 0.05 0.05 0.05 0.05 0.05 0.04 0.04 0.03 0.02 0.02 0.02 0.03 0.03 0.04 0.04 0.04 0.04 0.04 0.04 0.04 0.04 0.05 0.05 0.05 0.05 0.04 0.04 0.04 0.04 0.04 0.04 0.04 0.04 0.04 0.04 0.04 0.04 0.04 0.04
0.03 0.03 0.04 0.04 0.04 0.04 0.04 0.04 0.04 0.04 0.04 0.03 0.03 0.03 0.03 0.02 0.03 0.03 0.03 0.04 0.04 0.04 0.04 0.04 0.04 0.05 0.05 0.05 0.05 0.04 0.04 0.04 0.04 0.04 0.04 0.04 0.04 0.03 0.03 0.03 0.03 0.03 0.03
0.03 0.03 0.04 0.04 0.04 0.03 0.03 0.03 0.03 0.03 0.03 0.04 0.03 0.03 0.03 0.03 0.03 0.03 0.03 0.04 0.04 0.04 0.04 0.04 0.04 0.05 0.05 0.05 0.04 0.04 0.04 0.04 0.04 0.04 0.04 0.04 0.03 0.03 0.03 0.03 0.03 0.02 0.02
0.02 0.02 0.02 0.03 0.03 0.03 0.03 0.03 0.03 0.03 0.03 0.03 0.03 0.03 0.03 0.03 0.03 0.03 0.03 0.04 0.04 0.05 0.05 0.04 0.05 0.05 0.05 0.04 0.04 0.04 0.04 0.03 0.03 0.03 0.03 0.03 0.03 0.03 0.02 0.02 0.02 0.02 0.02
0.02 0.02 0.02 0.02 0.03 0.04 0.04 0.03 0.03 0.03 0.03 0.03 0.03 0.04 0.04 0.04 0.04 0.03 0.03 0.03 0.04 0.04 0.04 0.04 0.04 0.04 0.04 0.04 0.03 0.03 0.03 0.03 0.03 0.02 0.02 0.02 0.02 0.02 0.02 0.02 0.02 0.02 0.01
0.03 0.03 0.03 0.03 0.03 0.03 0.03 0.03 0.03 0.03 0.04 0.04 0.04 0.04 0.04 0.04 0.04 0.04 0.04 0.04 0.04 0.04 0.03 0.03 0.03 0.03 0.03 0.03 0.02 0.02 0.03 0.04 0.03 0.02 0.02 0.02 0.02 0.02 0.02 0.02 0.01 0.01 0.01
0.03 0.03 0.03 0.03 0.03 0.03 0.03 0.03 0.03 0.04 0.04 0.04 0.03 0.04 0.04 0.04 0.04 0.04 0.04 0.03 0.03 0.03 0.03 0.02 0.02 0.02 0.02 0.02 0.02 0.02 0.03 0.03 0.03 0.02 0.02 0.02 0.01 0.02 0.02 0.01 0.01 0.01 0.01
MSLP
1006.44 1006.71 1007.09 1007.51 1007.94 1008.33 1008.65 1008.87 1008.99 1008.99 1008.89 1008.70 1008.45 1008.19 1007.95 1007.78 1007.73 1007.83 1008.08 1008.50 1009.05 1009.70 1010.43 1011.19 1011.96 1012.75 1013.54 1014.38 1015.27 1016.25 1017.30 1018.43 1019.61 1020.78 1021.90 1022.91 1023.76 1024.45 1024.94 1025.27 1025.46 1025.55 1025.57
1005.47 1005.77 1006.19 1006.69 1007.20 1007.68 1008.08 1008.38 1008.55 1008.59 1008.51 1008.32 1008.07 1007.81 1007.57 1007.42 1007.39 1007.52 1007.81 1008.27 1008.87 1009.58 1010.34 1011.14 1011.94 1012.73 1013.52 1014.33 1015.19 1016.11 1017.11 1018.19 1019.32 1020.46 1021.57 1022.59 1023.49 1024.24 1024.82 1025.25 1025.54 1025.72 1025.82
1004.55 1004.88 1005.35 1005.89 1006.46 1006.99 1007.45 1007.80 1008.02 1008.09 1008.03 1007.87 1007.63 1007.38 1007.16 1007.03 1007.04 1007.21 1007.55 1008.07 1008.73 1009.49 1010.31 1011.16 1011.99 1012.81 1013.60 1014.40 1015.22 1016.08 1017.02 1018.01 1019.07 1020.14 1021.21 1022.22 1023.13 1023.92 1024.57 1025.08 1025.47 1025.75 1025.94
1003.69 1004.05 1004.54 1005.10 1005.69 1006.25 1006.74 1007.12 1007.37 1007.47 1007.45 1007.31 1007.11 1006.90 1006.72 1006.64 1006.70 1006.92 1007.33 1007.91 1008.64 1009.47 1010.35 1011.25 1012.13 1012.98 1013.78 1014.56 1015.34 1016.15 1017.00 1017.91 1018.87 1019.86 1020.86 1021.82 1022.72 1023.53 1024.23 1024.82 1025.29 1025.67 1025.95
1002.91 1003.28 1003.76 1004.32 1004.90 1005.46 1005.95 1006.33 1006.60 1006.73 1006.75 1006.66 1006.52 1006.37 1006.27 1006.26 1006.39 1006.70 1007.18 1007.83 1008.63 1009.52 1010.47 1011.42 1012.34 1013.21 1014.03 1014.79 1015.54 1016.30 1017.07 1017.89 1018.76 1019.66 1020.58 1021.49 1022.36 1023.17 1023.90 1024.53 1025.08 1025.53 1025.90
1002.21 1002.58 1003.05 1003.57 1004.12 1004.64 1005.10 1005.47 1005.74 1005.90 1005.96 1005.95 1005.89 1005.83 1005.83 1005.92 1006.15 1006.55 1007.11 1007.84 1008.70 1009.65 1010.64 1011.63 1012.58 1013.48 1014.30 1015.07 1015.79 1016.50 1017.22 1017.97 1018.76 1019.58 1020.42 1021.27 1022.11 1022.90 1023.64 1024.31 1024.90 1025.41 1025.84
1001.62 1001.98 1002.41 1002.88 1003.36 1003.83 1004.24 1004.58 1004.85 1005.04 1005.15 1005.22 1005.26 1005.32 1005.43 1005.65 1006.00 1006.49 1007.15 1007.94 1008.86 1009.85 1010.87 1011.89 1012.86 1013.77 1014.60 1015.37 1016.09 1016.78 1017.47 1018.17 1018.90 1019.66 1020.45 1021.25 1022.05 1022.82 1023.55 1024.23 1024.84 1025.37 1025.83
1001.13 1001.48 1001.86 1002.28 1002.69 1003.08 1003.44 1003.75 1004.01 1004.22 1004.39 1004.54 1004.69 1004.88 1005.13 1005.48 1005.95 1006.55 1007.28 1008.14 1009.10 1010.11 1011.15 1012.18 1013.16 1014.08 1014.93 1015.71 1016.44 1017.13 1017.82 1018.51 1019.22 1019.95 1020.71 1021.47 1022.23 1022.97 1023.68 1024.33 1024.93 1025.46 1025.92
1000.75 1001.07 1001.42 1001.77 1002.12 1002.44 1002.74 1003.02 1003.28 1003.52 1003.75 1003.98 1004.25 1004.56 1004.95 1005.42 1006.01 1006.70 1007.51 1008.42 1009.41 1010.44 1011.48 1012.51 1013.50 1014.43 1015.30 1016.10 1016.86 1017.59 1018.30 1019.01 1019.72 1020.45 1021.19 1021.93 1022.65 1023.36 1024.02 1024.64 1025.20 1025.70 1026.12
1000.43 1000.74 1001.06 1001.37 1001.66 1001.94 1002.20 1002.46 1002.72 1002.99 1003.28 1003.60 1003.96 1004.39 1004.90 1005.49 1006.17 1006.95 1007.83 1008.77 1009.78 1010.82 1011.86 1012.89 1013.88 1014.82 1015.72 1016.56 1017.36 1018.14 1018.89 1019.64 1020.39 1021.13 1021.86 1022.58 1023.27 1023.93 1024.54 1025.10 1025.61 1026.05 1026.42
1000.15 1000.46 1000.76 1001.05 1001.32 1001.57 1001.82 1002.08 1002.35 1002.66 1003.00 1003.40 1003.86 1004.38 1004.99 1005.67 1006.44 1007.29 1008.21 1009.19 1010.21 1011.24 1012.29 1013.31 1014.31 1015.27 1016.20 1017.09 1017.94 1018.77 1019.58 1020.38 1021.16 1021.91 1022.65 1023.34 1024.00 1024.61 1025.16 1025.66 1026.09 1026.47 1026.78
999.86 1000.18 1000.50 1000.79 1001.07 1001.33 1001.59 1001.87 1002.17 1002.52 1002.92 1003.39 1003.92 1004.53 1005.21 1005.97 1006.80 1007.70 1008.65 1009.65 1010.67 1011.71 1012.75 1013.78 1014.79 1015.78 1016.74 1017.67 1018.57 1019.46 1020.32 1021.15 1021.96 1022.73 1023.45 1024.13 1024.74 1025.30 1025.79 1026.22 1026.59 1026.91 1027.17
999.56 999.90 1000.24 1000.56 1000.87 1001.17 1001.48 1001.80 1002.16 1002.56 1003.02 1003.54 1004.14 1004.81 1005.55 1006.36 1007.23 1008.16 1009.14 1010.15 1011.18 1012.22 1013.26 1014.30 1015.32 1016.32 1017.31 1018.27 1019.22 1020.14 1021.03 1021.89 1022.71 1023.48 1024.19 1024.83 1025.41 1025.92 1026.36 1026.73 1027.05 1027.32 1027.54
999.24 999.61 999.99 1000.36 1000.72 1001.08 1001.46 1001.84 1002.27 1002.73 1003.25 1003.83 1004.48 1005.20 1005.98 1006.83 1007.73 1008.68 1009.67 1010.68 1011.72 1012.76 1013.80 1014.84 1015.86 1016.88 1017.88 1018.86 1019.82 1020.76 1021.66 1022.53 1023.34 1024.09 1024.78 1025.39 1025.93 1026.40 1026.80 1027.15 1027.43 1027.68 1027.88
998.95 999.34 999.76 1000.18 1000.61 1001.05 1001.50 1001.97 1002.47 1003.01 1003.60 1004.24 1004.94 1005.70 1006.51 1007.38 1008.29 1009.25 1010.24 1011.26 1012.29 1013.32 1014.36 1015.40 1016.42 1017.43 1018.43 1019.41 1020.36 1021.29 1022.18 1023.02 1023.81 1024.53 1025.19 1025.77 1026.29 1026.73 1027.12 1027.45 1027.74 1027.99 1028.20
998.74 999.15 999.59 1000.07 1000.57 1001.08 1001.62 1002.18 1002.77 1003.39 1004.05 1004.75 1005.50 1006.29 1007.13 1008.01 1008.93 1009.89 1010.87 1011.88 1012.90 1013.92 1014.95 1015.96 1016.97 1017.96 1018.93 1019.89 1020.81 1021.70 1022.55 1023.36 1024.11 1024.80 1025.43 1025.99 1026.49 1026.93 1027.32 1027.67 1027.98 1028.26 1028.51
998.70 999.09 999.55 1000.07 1000.62 1001.21 1001.83 1002.48 1003.16 1003.86 1004.60 1005.36 1006.15 1006.98 1007.84 1008.73 1009.66 1010.61 1011.58 1012.56 1013.56 1014.56 1015.55 1016.54 1017.51 1018.47 1019.40 1020.30 1021.17 1022.01 1022.81 1023.57 1024.28 1024.93 1025.54 1026.09 1026.59 1027.05 1027.47 1027.86 1028.21 1028.54 1028.83
998.87 999.24 999.70 1000.24 1000.84 1001.49 1002.18 1002.91 1003.67 1004.45 1005.26 1006.08 1006.92 1007.78 1008.66 1009.56 1010.48 1011.41 1012.36 1013.32 1014.28 1015.24 1016.19 1017.13 1018.05 1018.95 1019.83 1020.67 1021.48 1022.26 1023.00 1023.71 1024.37 1025.00 1025.58 1026.13 1026.65 1027.14 1027.60 1028.03 1028.44 1028.82 1029.16
999.30 999.64 1000.09 1000.63 1001.26 1001.95 1002.71 1003.50 1004.33 1005.18 1006.05 1006.93 1007.82 1008.70 1009.60 1010.50 1011.40 1012.31 1013.22 1014.14 1015.06 1015.97 1016.86 1017.74 1018.60 1019.43 1020.24 1021.02 1021.76 1022.48 1023.16 1023.82 1024.45 1025.05 1025.62 1026.18 1026.72 1027.24 1027.75 1028.23 1028.69 1029.12 1029.50
1000.01 1000.32 1000.74 1001.28 1001.92 1002.64 1003.43 1004.28 1005.17 1006.07 1006.99 1007.91 1008.83 1009.73 1010.63 1011.52 1012.40 1013.28 1014.15 1015.02 1015.87 1016.72 1017.55 1018.37 1019.15 1019.92 1020.66 1021.37 1022.05 1022.71 1023.34 1023.95 1024.55 1025.13 1025.71 1026.27 1026.83 1027.39 1027.93 1028.45 1028.95 1029.41 1029.82
1000.98 1001.25 1001.65 1002.18 1002.82 1003.56 1004.37 1005.25 1006.17 1007.11 1008.06 1009.00 1009.93 1010.84 1011.73 1012.60 1013.45 1014.29 1015.11 1015.91 1016.71 1017.49 1018.25 1018.99 1019.71 1020.41 1021.08 1021.73 1022.36 1022.96 1023.56 1024.14 1024.71 1025.28 1025.85 1026.42 1026.99 1027.56 1028.13 1028.67 1029.19 1029.67 1030.09
1002.14 1002.39 1002.78 1003.29 1003.93 1004.67 1005.50 1006.39 1007.32 1008.27 1009.23 1010.18 1011.10 1012.00 1012.86 1013.70 1014.51 1015.29 1016.05 1016.79 1017.52 1018.23 1018.93 1019.60 1020.26 1020.90 1021.52 1022.11 1022.70 1023.26 1023.82 1024.38 1024.93 1025.49 1026.05 1026.62 1027.19 1027.77 1028.33 1028.88 1029.40 1029.87 1030.29
1003.43 1003.68 1004.07 1004.58 1005.21 1005.94 1006.76 1007.64 1008.56 1009.50 1010.45 1011.37 1012.27 1013.14 1013.96 1014.75 1015.51 1016.24 1016.94 1017.62 1018.28 1018.93 1019.56 1020.18 1020.78 1021.38 1021.95 1022.51 1023.06 1023.60 1024.14 1024.67 1025.21 1025.75 1026.30 1026.86 1027.42 1027.98 1028.54 1029.07 1029.57 1030.03 1030.42
1004.79 1005.05 1005.44 1005.95 1006.57 1007.29 1008.09 1008.94 1009.83 1010.74 1011.65 1012.53 1013.39 1014.21 1014.98 1015.72 1016.42 1017.10 1017.74 1018.36 1018.97 1019.56 1020.15 1020.72 1021.29 1021.84 1022.39 1022.92 1023.45 1023.97 1024.49 1025.01 1025.53 1026.05 1026.59 1027.13 1027.67 1028.21 1028.74 1029.25 1029.72 1030.15 1030.52
1006.15 1006.42 1006.82 1007.33 1007.94 1008.64 1009.41 1010.22 1011.07 1011.92 1012.78 1013.61 1014.41 1015.17 1015.90 1016.58 1017.23 1017.85 1018.45 1019.02 1019.59 1020.14 1020.69 1021.23 1021.77 1022.30 1022.83 1023.35 1023.86 1024.37 1024.87 1025.38 1025.88 1026.39 1026.91 1027.42 1027.94 1028.45 1028.95 1029.43 1029.87 1030.27 1030.61
1007.47 1007.77 1008.18 1008.68 1009.27 1009.94 1010.66 1011.43 1012.22 1013.01 1013.80 1014.57 1015.31 1016.02 1016.69 1017.33 1017.94 1018.52 1019.08 1019.62 1020.15 1020.68 1021.21 1021.73 1022.26 1022.77 1023.29 1023.80 1024.30 1024.80 1025.30 1025.79 1026.28 1026.77 1027.26 1027.75 1028.24 1028.73 1029.20 1029.64 1030.06 1030.43 1030.75
Thickness
5484 5483 5482 5481 5480 5480 5480 5481 5482 5482 5482 5483 5484 5484 5484 5484 5484 5484 5484 5484 5485 5487 5488 5489 5490 5490 5490 5490 5489 5489 5489 5490 5494 5497 5497 5497 5498 5499 5500 5500 5501 5501 5502
5477 5476 5475 5475 5474 5474 5474 5474 5474 5475 5475 5475 5476 5476 5476 5476 5476 5476 5476 5476 5477 5479 5480 5481 5481 5481 5481 5480 5480 5481 5481 5482 5484 5487 5488 5488 5490 5491 5492 5492 5493 5493 5493
5470 5470 5469 5469 5469 5468 5468 5467 5467 5467 5468 5468 5468 5468 5469 5468 5468 5468 5468 5468 5469 5471 5472 5472 5473 5474 5473 5472 5472 5472 5473 5474 5475 5477 5479 5479 5481 5482 5483 5483 5483 5484 5484
5464 5463 5463 5463 5463 5462 5461 5460 5460 5460 5460 5461 5461 5462 5461 5461 5461 5461 5461 5460 5461 5462 5463 5463 5464 5465 5465 5465 5465 5465 5464 5465 5466 5468 5470 5470 5472 5472 5473 5474 5475 5475 5475
5458 5457 5457 5456 5455 5454 5454 5453 5453 5453 5453 5453 5454 5454 5454 5454 5454 5454 5453 5453 5454 5454 5454 5455 5455 5455 5456 5457 5457 5457 5457 5458 5459 5460 5461 5462 5463 5464 5464 5464 5465 5465 5465
5451 5451 5450 5449 5448 5446 5446 5445 5446 5446 5446 5446 5446 5447 5447 5447 5447 5447 5446 5446 5446 5446 5447 5446 5447 5447 5447 5447 5448 5448 5449 5451 5453 5453 5454 5455 5455 5455 5455 5455 5455 5455 5457
5445 5444 5443 5442 5441 5439 5439 5438 5438 5438 5438 5439 5439 5439 5439 5439 5439 5440 5439 5438 5438 5438 5438 5438 5439 5439 5439 5440 5439 5439 5440 5442 5444 5445 5446 5447 5447 5446 5446 5446 5446 5446 5446
5439 5438 5436 5435 5434 5433 5432 5431 5430 5430 5430 5431 5431 5430 5431 5431 5431 5432 5432 5431 5430 5430 5430 5430 5431 5431 5430 5431 5431 5432 5433 5434 5435 5436 5438 5439 5438 5437 5437 5437 5437 5436 5437
5432 5431 5430 5429 5428 5427 5425 5424 5423 5422 5422 5422 5422 5422 5422 5423 5423 5424 5423 5423 5423 5423 5422 5422 5422 5422 5422 5422 5423 5425 5426 5426 5426 5427 5428 5429 5429 5429 5428 5428 5428 5429 5430
5426 5425 5424 5423 5422 5421 5419 5417 5415 5414 5414 5414 5414 5413 5414 5414 5414 5415 5414 5415 5416 5416 5415 5414 5414 5414 5414 5414 5415 5417 5418 5418 5418 5419 5420 5421 5421 5420 5419 5420 5421 5421 5422
5420 5418 5418 5417 5416 5415 5412 5410 5408 5407 5407 5406 5406 5406 5406 5406 5406 5407 5407 5407 5408 5407 5407 5407 5406 5406 5406 5406 5406 5408 5409 5409 5409 5411 5412 5412 5412 5412 5411 5411 5411 5413 5415
5414 5412 5411 5410 5409 5408 5406 5403 5402 5401 5400 5399 5399 5398 5398 5397 5398 5399 5399 5399 5399 5399 5399 5399 5398 5397 5397 5397 5397 5398 5398 5399 5401 5403 5404 5404 5404 5403 5402 5402 5403 5404 5406
5408 5407 5406 5405 5404 5401 5400 5398 5396 5395 5394 5393 5392 5392 5391 5390 5390 5391 5391 5391 5391 5391 5391 5390 5389 5389 5388 5388 5387 5388 5389 5391 5393 5394 5395 5395 5394 5394 5394 5395 5396 5397 5398
5404 5403 5401 5399 5398 5396 5393 5392 5391 5390 5388 5387 5386 5385 5385 5384 5384 5384 5384 5384 5383 5382 5382 5382 5381 5380 5380 5380 5379 5380 5381 5382 5383 5385 5386 5386 5386 5386 5387 5388 5390 5391 5391
5399 5397 5395 5393 5392 5390 5387 5385 5384 5383 5382 5381 5380 5380 5379 5380 5379 5378 5379 5378 5377 5376 5375 5374 5373 5373 5373 5373 5373 5373 5373 5374 5375 5376 5377 5378 5378 5379 5380 5381 5383 5384 5384
5393 5392 5390 5388 5386 5384 5382 5379 5377 5376 5375 5374 5374 5373 5374 5373 5373 5373 5372 5372 5370 5369 5368 5368 5367 5367 5367 5366 5366 5366 5366 5367 5368 5369 5370 5370 5371 5373 5374 5375 5376 5377 5378
5388 5386 5384 5382 5380 5378 5377 5375 5374 5372 5369 5368 5368 5368 5368 5367 5367 5367 5366 5365 5364 5362 5362 5362 5361 5361 5360 5360 5359 5359 5360 5360 5361 5361 5363 5364 5364 5366 5367 5369 5370 5371 5371
5382 5380 5378 5377 5375 5373 5372 5370 5369 5368 5366 5365 5363 5362 5362 5361 5360 5360 5359 5357 5357 5356 5356 5356 5356 5355 5354 5353 5352 5352 5353 5353 5354 5355 5356 5357 5358 5359 5361 5362 5364 5365 5366
5376 5375 5373 5372 5370 5368 5366 5365 5363 5362 5361 5360 5358 5357 5355 5355 5353 5352 5351 5350 5350 5350 5350 5349 5349 5348 5347 5347 5347 5347 5347 5348 5348 5349 5350 5351 5352 5354 5355 5356 5358 5358 5360
5371 5369 5367 5366 5365 5364 5362 5361 5359 5357 5356 5354 5353 5352 5350 5349 5347 5346 5345 5344 5343 5343 5343 5343 5342 5342 5342 5342 5342 5342 5342 5343 5343 5344 5345 5346 5347 5348 5349 5351 5352 5354 5354
5366 5364 5362 5361 5360 5359 5357 5356 5354 5352 5350 5349 5347 5345 5344 5343 5342 5341 5340 5339 5338 5337 5337 5337 5337 5337 5337 5337 5337 5338 5338 5338 5339 5340 5340 5341 5342 5343 5344 5345 5346 5347 5348
5361 5360 5358 5356 5355 5353 5352 5350 5348 5347 5345 5343 5342 5340 5338 5337 5337 5336 5335 5334 5333 5332 5331 5331 5332 5333 5333 5333 5333 5334 5334 5335 5335 5335 5335 5336 5337 5337 5338 5339 5340 5341 5342
5355 5353 5352 5351 5349 5348 5346 5344 5343 5341 5340 5338 5336 5335 5333 5333 5332 5331 5330 5329 5328 5327 5327 5328 5328 5328 5328 5328 5329 5330 5330 5331 5331 5331 5331 5332 5332 5333 5334 5335 5335 5336 5337
5349 5348 5347 5345 5343 5342 5340 5339 5337 5335 5334 5332 5331 5330 5329 5328 5327 5326 5325 5324 5324 5323 5323 5323 5324 5324 5324 5324 5324 5325 5325 5325 5325 5326 5327 5329 5329 5329 5330 5330 5331 5332 5332
5344 5342 5341 5339 5337 5336 5334 5333 5331 5330 5328 5327 5326 5325 5324 5322 5321 5320 5319 5319 5318 5318 5318 5318 5318 5319 5319 5320 5320 5320 5320 5321 5321 5322 5323 5324 5325 5325 5325 5326 5326 5326 5327
5338 5337 5335 5333 5332 5330 5329 5328 5326 5325 5323 5322 5321 5319 5318 5317 5316 5316 5315 5314 5313 5313 5313 5313 5314 5314 5315 5315 5316 5316 5316 5317 5317 5318 5319 5320 5320 5320 5320 5321 5321 5321 5321